Content
SEND FEEDBACK

Daily
Averages
Monthly
Summary
United States of America

BRIDGEWATER, NEW JERSEY


Home > North America > United States > New Jersey
Elevation: 40 meters     Latitude: 40 36N     Longitude: 074 38W

WEATHER
 
SELECT A DAY
Number of Records: 172,078;   Date Range: 6/2/99 - 10/20/14
 
SHARE

PRINT THIS DATA

[ ← Previous Day ]
WEATHER ALMANAC - 13 FEBRUARY, 2013
[ Next Day → ]
[ °F ]   °C
Weather ElementAverageHighLow
Temperature0.9 °C6.1 °C (1:53 pm)-6.1 °C (5:53 am)
Dewpoint-2.8 °C1 °C (11:17 pm)-7.2 °C (5:53 am)
Humidity78.9 %100 % (11:17 pm)47 % (2:53 pm)
Barometer1008.5 hPa1014.6 hPa (1:53 am)1005.1 hPa (5:53 pm)
Wind Speed1.8 km/h9.3 km/h (10:53 am)
Weather ElementAverage
Visibility11.4 km
Wind DirectionENE (57.4 °)

Weather ElementTotal
Precipitation1.78 mm
Heating Degree Days18.3 (Base 18.3)
Averaged from 31 records on 13 February, 2013
WEATHER CONDITIONS BREAKOUT
WIND DIRECTION BREAKOUT
WEATHER BY HOUR - 13 FEBRUARY, 2013
[ °F ]   °C
Local TimeTemperatureDewpointHumidityBarometerVisibilityWind DirectionWind SpeedGust SpeedPrecipitationEventsConditions
1:53 AM-3.9 °C-5.6 °C88 %1014.6 hPa16.1 kmCalmClear
2:53 AM-4.4 °C-6.1 °C88 %1014.2 hPa16.1 kmCalmClear
3:53 AM-4.4 °C-6.1 °C88 %1013.2 hPa16.1 kmCalmClear
4:53 AM-5 °C-6.1 °C92 %1012.9 hPa14.5 kmNW (310°)5.6 km/hClear
5:53 AM-6.1 °C-7.2 °C92 %1013.2 hPa14.5 kmCalmClear
6:53 AM-5.6 °C-7.2 °C89 %1012.9 hPa12.9 kmCalmClear
7:53 AM-4.4 °C-5.6 °C91 %1012.9 hPa12.9 kmCalmClear
8:53 AM-0.6 °C-3.9 °C79 %1012.2 hPa16.1 kmCalmClear
9:53 AM3.3 °C-5.6 °C53 %1011.5 hPa16.1 kmNorth (10°)7.4 km/hClear
10:53 AM3.9 °C-4.4 °C55 %1012.5 hPa16.1 kmSouth (190°)9.3 km/hClear
11:53 AM3.9 °C-4.4 °C55 %1011.2 hPa16.1 kmSouth (170°)7.4 km/hClear
12:53 PM5 °C-4.4 °C51 %1009.5 hPa16.1 kmCalmClear
1:53 PM6.1 °C-3.9 °C49 %1008.5 hPa16.1 kmCalmClear
2:53 PM6.1 °C-4.4 °C47 %1007.8 hPa16.1 kmCalmClear
3:53 PM5.6 °C-3.3 °C53 %1007.5 hPa16.1 kmSouth (170°)7.4 km/hMostly Cloudy
4:53 PM5 °C-4.4 °C51 %1005.8 hPa16.1 kmCalmPartly Cloudy
5:53 PM4.4 °C-3.9 °C55 %1005.1 hPa16.1 kmCalmOvercast
6:53 PM3.3 °C-2.2 °C68 %1005.8 hPa16.1 kmCalm0 mmOvercast
7:53 PM1.7 °C-0.6 °C85 %1005.8 hPa14.5 kmCalm0.25 mmOvercast
8:43 PM2 °C0 °C87 %1006.1 hPa8 kmWNW (300°)5.6 km/h0 mmSnowLight Snow
8:53 PM1.7 °C0 °C89 %1006.4 hPa9.7 kmNW (320°)7.4 km/h0.25 mmOvercast
9:09 PM1 °C0 °C93 %1006.1 hPa4 kmNW (310°)5.6 km/h0 mmSnowLight Snow
9:33 PM1 °C0 °C93 %1005.8 hPa4 kmCalm0 mmSnowLight Snow
9:41 PM1 °C0 °C93 %1005.8 hPa4.8 kmCalm0 mmSnowLight Snow
9:53 PM1.1 °C0 °C92 %1006.1 hPa4 kmCalm0 mmSnowLight Snow
10:06 PM1 °C0 °C93 %1005.4 hPa2.9 kmCalm0 mmSnowLight Snow
10:18 PM1 °C0 °C93 %1005.4 hPa4 kmCalm0.25 mmSnowLight Snow
10:53 PM0.6 °C0 °C96 %1005.8 hPa4 kmCalm0.25 mmSnowLight Snow
11:09 PM1 °C0 °C93 %1005.8 hPa4 kmCalm0.25 mmOvercast
11:17 PM1 °C1 °C100 %1005.4 hPa4.8 kmCalm0.25 mmOvercast
11:53 PM0.6 °C0 °C96 %1006.1 hPa4.8 kmCalm0.25 mmOvercast
Hourly data recorded from KSMQ, located 0 kilometers away from Bridgewater, New Jersey







STORIES FROM OUR PARTNERS